Effective Sunday, March 17, 2024, the National Weather Service National Data Buoy Center will discontinue its Dial-A-Buoy Interactive Voice Response system. For more information, see Service Change Notice 24-06 (PDF).

Station CHSV3 - 9751364 - Christiansted Harbor, St. Croix, VI Image indicating link to RSS feed of recent meteorological observations for station CHSV3


Conditions at CHSV3 as of
(3:48 pm AST)
1948 GMT on 03/03/2024:
     

Click on the graph icon in the table below to see a time series plot of the last five days of that observation.

5-day plot - Wind Direction Wind Direction (WDIR):NNE ( 30 deg true )
5-day plot - Wind Speed Wind Speed (WSPD): 4.1 kts
5-day plot - Wind Gust Wind Gust (GST): 12.0 kts
5-day plot - Atmospheric Pressure Atmospheric Pressure (PRES):29.96 in
5-day plot - Water Temperature Water Temperature (WTMP): 81.5 °F
5-day plot - Wind Speed at 10 Meters Wind Speed at 10 meters (WSPD10M): 3.9 kts
5-day plot - Wind Speed at 20 Meters Wind Speed at 20 meters (WSPD20M): 3.9 kts
5-day plot -  Wind Speed, Wind Gust and Atmospheric Pressure Combined plot of Wind Speed, Gust, and Air Pressure
NOS Water Level Observation Network Water Level
Previous observations
TIME
(AST)
5-day plot - Wind Direction
WDIR
 
5-day plot - Wind Speed
WSPD
kts
5-day plot - Wind Gust
GST
kts
5-day plot - Wave Height
WVHT
ft
5-day plot - Dominant Wave Period
DPD
sec
5-day plot - Average Wave Period
APD
sec
5-day plot - Mean Wave Direction
MWD
 
5-day plot - Atmospheric Pressure
PRES
in
5-day plot - Pressure Tendency
PTDY
in
5-day plot - Air Temperature
ATMP
°F
5-day plot - Water Temperature
WTMP
°F
5-day plot - Dew Point
DEWP
°F
5-day plot - Salinity
SAL
psu
5-day plot - Visibility
VIS
nmi
5-day plot - Tide (above MLLW)
TIDE
ft
2024-03-03 03:42 pm NE 8.9 13.0----29.96-- 81.3----
2024-03-03 03:36 pm NE 7.0 14.0----29.96-- 81.3----
2024-03-03 03:30 pmENE 6.0 13.0----29.96-- 81.3----
2024-03-03 03:24 pmENE 5.1 13.0----29.96-- 81.3----
2024-03-03 03:18 pm NE 7.0 13.0----29.96-------
2024-03-03 03:12 pm NE 7.0 12.0----29.96-------
2024-03-03 03:06 pm NE 5.1 12.0----29.97-------
2024-03-03 03:00 pm NE 9.9 14.0----29.97-0.06- 81.3----
2024-03-03 02:54 pm NE 5.1 12.0----29.97-- 81.3----
2024-03-03 02:48 pm NE 8.0 15.0----29.97-- 81.3----
2024-03-03 02:42 pm NE 8.0 14.0----29.97-- 81.1----
2024-03-03 02:36 pm NE 8.9 14.0----29.97-- 81.1----
2024-03-03 02:30 pm NE 8.9 13.0----29.98-- 81.1----
2024-03-03 02:24 pm NE 8.0 14.0----29.98-- 81.1----
2024-03-03 02:18 pm NE 8.0 12.0----29.98-- 81.1----
2024-03-03 02:12 pmENE 7.0 15.0----29.98-- 81.1----
2024-03-03 02:06 pm NE 8.0 15.0----29.98-- 81.1----
2024-03-03 02:00 pmENE 5.1 12.0----29.98-0.06- 81.1----
2024-03-03 01:54 pm NE 8.9 14.0----29.99-- 81.0----
2024-03-03 01:48 pm NE 11.1 14.0----29.99-- 81.0----
2024-03-03 01:42 pmENE 6.0 12.0----30.00-- 81.0----
2024-03-03 01:36 pm NE 8.9 15.9----30.00-- 81.0----
2024-03-03 01:30 pm NE 8.9 14.0----30.00-- 81.0----
2024-03-03 01:24 pmENE 7.0 13.0----30.00-- 81.0----
2024-03-03 01:18 pm NE 5.1 11.1----30.01-- 81.0----
2024-03-03 01:12 pm NE 5.1 12.0----30.01-- 81.0----
2024-03-03 01:06 pm NE 6.0 15.0----30.01-- 80.8----
2024-03-03 01:00 pmENE 6.0 11.1----30.01-- 80.8----
2024-03-03 12:54 pm NE 6.0 12.0----30.02-- 80.8----
2024-03-03 12:48 pm NE 6.0 8.9----30.02-- 80.8----
2024-03-03 12:42 pm NE 5.1 12.0----30.02-- 80.8----
2024-03-03 12:36 pm NE 5.1 12.0----30.02-- 80.8----
2024-03-03 12:30 pmNNE 7.0 12.0----30.02-- 80.6----
2024-03-03 12:24 pm NE 7.0 13.0----30.03-- 80.6----
2024-03-03 12:18 pm NE 7.0 13.0----30.03-- 80.6----
2024-03-03 12:12 pmENE 7.0 9.9----30.03-- 80.6----
2024-03-03 12:06 pmENE 5.1 12.0----30.03-- 80.6----
2024-03-03 12:00 pm NE 7.0 11.1----30.03-0.02- 80.6----
2024-03-03 11:54 am NE 9.9 14.0----30.03-- 80.6----
2024-03-03 11:48 am NE 6.0 11.1----30.03-- 80.6----
2024-03-03 11:42 amNNE 8.0 12.0----30.03-- 80.4----
2024-03-03 11:36 am NE 7.0 11.1----30.04-- 80.4----
2024-03-03 11:30 amNNE 8.0 12.0----30.04-- 80.4----
2024-03-03 11:24 amNNE 8.0 15.0----30.04-- 80.4----
2024-03-03 11:18 amNNE 8.0 15.9----30.04-- 80.4----
2024-03-03 11:12 amNNE 9.9 15.9----30.05-- 80.4----
2024-03-03 11:06 am NE 6.0 13.0----30.05-- 80.2----
2024-03-03 11:00 am NE 7.0 13.0----30.05+0.01- 80.2----
2024-03-03 10:54 amNNE 7.0 12.0----30.05-- 80.2----
2024-03-03 10:48 amNNE 6.0 12.0----30.05-- 80.2----
2024-03-03 10:42 am NE 8.0 13.0----30.05-- 80.2----
2024-03-03 10:36 amNNE 8.9 13.0----30.05-- 80.2----
2024-03-03 10:30 am NE 8.0 12.0----30.06-------
2024-03-03 10:24 amNNE 11.1 15.0----30.06-------
2024-03-03 10:18 am NE 7.0 13.0----30.06-- 80.1----
2024-03-03 10:12 am NE 7.0 14.0----30.06-- 80.1----
2024-03-03 10:06 am NE 8.0 13.0----30.06-- 80.1----
2024-03-03 10:00 amNNE 8.0 12.0------- 80.1----
2024-03-03 09:54 amNNE 8.0 13.0------- 80.1----
2024-03-03 09:48 am NE 7.0 14.0----30.06-- 79.9----
2024-03-03 09:42 amNNE 7.0 12.0----30.06-- 79.9----
2024-03-03 09:36 amNNE 8.9 14.0----30.06-- 79.9----
2024-03-03 09:30 am NE 6.0 13.0----30.06-- 79.9----
2024-03-03 09:24 amNNE 8.0 14.0----30.06-- 79.9----
2024-03-03 09:18 am NE 6.0 15.0----30.06-- 79.9----
2024-03-03 09:12 amNNE 8.9 15.0----30.05-- 79.9----
2024-03-03 09:06 amNNE 11.1 15.9----30.05-- 79.7----
2024-03-03 09:00 amNNE 8.9 13.0----30.05+0.06------
2024-03-03 08:54 am NE 9.9 13.0----30.05-------
2024-03-03 08:48 am NE 8.0 13.0----30.05-- 79.7----
2024-03-03 08:42 amNNE 9.9 15.0----30.05-- 79.7----
2024-03-03 08:36 amNNE 8.9 14.0----30.04-- 79.7----
2024-03-03 08:30 am---------- 79.7----
2024-03-03 08:24 am---------- 79.7----
2024-03-03 08:18 amNNE 11.1 17.1----30.04-- 79.7----
2024-03-03 08:12 amNNE 7.0 11.1----30.04-- 79.7----
2024-03-03 08:06 amENE 1.0 4.1----30.04-- 79.7----
2024-03-03 08:00 amENE 2.9 8.0----30.03+0.05- 79.7----
2024-03-03 07:54 am NE 5.1 8.0----30.03-- 79.7----
2024-03-03 07:48 am NE 5.1 8.9----30.03-- 79.7----
2024-03-03 07:42 am NE 6.0 12.0----30.03-- 79.7----
2024-03-03 07:36 amNNE 8.0 13.0----30.03-- 79.7----
2024-03-03 07:30 amNNE 8.0 13.0----30.03-- 79.7----
2024-03-03 07:24 amNNE 8.9 15.9----30.03-- 79.7----
2024-03-03 07:18 amNNE 8.9 15.0----30.02-- 79.7----
2024-03-03 07:12 amNNE 7.0 12.0----30.02-- 79.7----
2024-03-03 07:06 am NE 5.1 12.0----30.02-- 79.7----
2024-03-03 07:00 am NE 8.0 11.1----30.01+0.02- 79.7----
2024-03-03 06:54 amNNE 7.0 13.0----30.01-- 79.7----
2024-03-03 06:48 am NE 8.9 15.0----30.01-- 79.7----
2024-03-03 06:42 amNNE 11.1 19.0----30.01-- 79.7----
2024-03-03 06:36 amNNE 13.0 17.1----30.00-- 79.7----
2024-03-03 06:30 amNNE 8.9 17.1----30.00-- 79.7----
2024-03-03 06:24 amNNE 8.9 15.0----30.00-- 79.7----
2024-03-03 06:18 amNNE 9.9 14.0----29.99-- 79.7----
2024-03-03 06:12 amNNE 8.9 14.0----29.99-- 79.7----
2024-03-03 06:06 amNNE 8.9 15.0----29.99-- 79.7----
2024-03-03 06:00 amNNE 8.0 15.0----29.99+0.00- 79.7----
2024-03-03 05:54 am NE 8.0 12.0----29.99-- 79.7----
2024-03-03 05:48 amNNE 8.9 15.0----29.99-- 79.7----
2024-03-03 05:42 amNNE 9.9 15.9----29.99-- 79.7----
2024-03-03 05:36 amNNE 9.9 15.9----29.98-- 79.9----
2024-03-03 05:30 amNNE 8.0 17.1----29.98-- 79.9----
2024-03-03 05:24 am NE 8.0 13.0----29.98-- 79.9----
2024-03-03 05:18 amNNE 8.9 13.0----29.98-- 79.9----
2024-03-03 05:12 amNNE 11.1 17.1----29.98-- 79.9----
2024-03-03 05:06 amNNE 8.9 14.0----29.98-- 79.9----
2024-03-03 05:00 amNNE 11.1 19.0----29.98-0.02- 79.9----
2024-03-03 04:54 amNNE 9.9 15.0----29.98-- 79.9----
2024-03-03 04:48 amNNE 8.0 15.9----29.98-- 79.9----
2024-03-03 04:42 amNNE 8.0 14.0----29.98-- 79.9----
2024-03-03 04:36 amNNE 7.0 12.0----29.98-- 79.9----
2024-03-03 04:30 amNNE 9.9 13.0----29.98-- 79.9----
2024-03-03 04:24 am NE 7.0 14.0----29.98-- 79.9----
2024-03-03 04:18 am NE 5.1 8.9----29.98-- 79.9----
2024-03-03 04:12 amNNE 4.1 11.1----29.98-- 79.9----
2024-03-03 04:06 amNNE 6.0 13.0----29.98-- 79.9----
2024-03-03 04:00 amNNE 8.9 14.0----29.99-0.04- 79.9----
2024-03-03 03:54 am NE 7.0 13.0----29.99-- 79.9----
2024-03-03 03:48 am NE 1.9 7.0----29.98-- 79.9----
2024-03-03 03:42 am NE 5.1 9.9----29.98-- 79.9----
2024-03-03 03:36 amENE 7.0 12.0----29.99-- 79.9----
2024-03-03 03:30 am E 2.9 9.9----29.99-- 79.9----
2024-03-03 03:24 am NE 5.1 13.0----29.99-- 79.9----
2024-03-03 03:18 am NE 8.9 22.0----29.99-- 79.9----
2024-03-03 03:12 amNNE 11.1 20.0----29.98-- 79.9----
2024-03-03 03:06 amNNE 7.0 15.0----29.98-- 79.9----
2024-03-03 03:00 amNNE 8.0 13.0----29.99-0.05- 79.9----
2024-03-03 02:54 am NE 7.0 12.0----29.99-- 79.9----
2024-03-03 02:48 am NE 5.1 13.0----29.99-- 79.9----
2024-03-03 02:42 am NE 9.9 17.1----30.00-- 79.9----
2024-03-03 02:36 amNNE 8.9 13.0----29.99-- 80.1----
2024-03-03 02:30 am NE 12.0 19.0----30.00-- 80.1----
2024-03-03 02:24 amNNE 8.9 17.1----30.00-- 80.1----
2024-03-03 02:18 amNNE 8.9 14.0----30.00-- 80.1----
2024-03-03 02:12 amNNE 11.1 18.1----30.00-- 80.1----
2024-03-03 02:06 amNNE 9.9 15.9----30.00-- 80.1----
2024-03-03 02:00 amNNE 12.0 19.0----30.00-0.05- 80.1----
2024-03-03 01:54 amNNE 11.1 15.0----30.00-- 80.1----
2024-03-03 01:48 amNNE 9.9 13.0----30.01-- 80.1----
2024-03-03 01:42 am NE 7.0 13.0----30.01-- 80.1----
2024-03-03 01:36 am NE 8.0 15.9----30.01-- 80.1----
2024-03-03 01:30 amNNE 7.0 14.0----30.01-- 80.1----
2024-03-03 01:24 am NE 7.0 14.0----30.01-- 80.1----
2024-03-03 01:18 am NE 7.0 14.0----30.01-- 80.1----
2024-03-03 01:12 am NE 8.0 14.0----30.01-- 80.1----
2024-03-03 01:06 am NE 7.0 15.0----30.02-- 80.1----
2024-03-03 01:00 am NE 6.0 12.0----30.02-0.03- 80.1----
2024-03-03 12:54 am NE 7.0 12.0----30.03-- 80.1----
2024-03-03 12:48 amNNE 9.9 15.0----30.03-- 80.2----
2024-03-03 12:42 am NE 8.0 15.0----30.03-- 80.2----
2024-03-03 12:36 amNNE 8.0 18.1----30.03-- 80.2----
2024-03-03 12:30 amNNE 9.9 17.1----30.03-- 80.2----
2024-03-03 12:24 amNNE 8.0 13.0----30.03-- 80.2----
2024-03-03 12:18 amNNE 8.9 15.0----30.03-- 80.4----
2024-03-03 12:12 am NE 8.9 15.0----30.03-- 80.4----
2024-03-03 12:06 amNNE 9.9 15.9----30.03-- 80.4----
2024-03-03 12:00 amNNE 12.0 15.9----30.03-0.01- 80.4----
2024-03-02 11:54 pmNNE 13.0 18.1----30.03-- 80.4----
2024-03-02 11:48 pmNNE 11.1 18.1----30.03-- 80.4----
2024-03-02 11:42 pmNNE 8.9 13.0----30.04-- 80.4----
2024-03-02 11:36 pmNNE 9.9 14.0----30.04-- 80.4----
2024-03-02 11:30 pmNNE 8.9 13.0----30.04-- 80.4----
2024-03-02 11:24 pm NE 7.0 13.0----30.05-- 80.4----
2024-03-02 11:18 pmNNE 11.1 15.9----30.05-- 80.6----
2024-03-02 11:12 pm NE 11.1 20.0----30.05-- 80.6----
2024-03-02 11:06 pmNNE 12.0 15.9----30.05-- 80.8----
2024-03-02 11:00 pmNNE 12.0 15.0----30.05+0.00- 80.8----
2024-03-02 10:54 pmNNE 7.0 14.0----30.05-- 80.8----
2024-03-02 10:48 pmNNE 8.9 15.0----30.05-- 80.8----
2024-03-02 10:42 pmNNE 9.9 15.9----30.05-- 80.8----
2024-03-02 10:36 pmNNE 8.0 14.0----30.05-- 80.8----
2024-03-02 10:30 pmNNE 8.9 15.0----30.05-- 81.0----
2024-03-02 10:24 pmNNE 8.9 13.0----30.05-- 81.0----
2024-03-02 10:18 pmNNE 7.0 11.1----30.05-- 81.0----
2024-03-02 10:12 pmNNE 11.1 17.1----30.05-- 81.0----
2024-03-02 10:06 pmNNE 8.0 19.0----30.06-- 81.0----
2024-03-02 10:00 pmNNE 8.9 15.9----30.05+0.03- 81.1----
2024-03-02 09:54 pmNNE 9.9 15.9----30.06-- 81.1----
2024-03-02 09:48 pmNNE 11.1 15.0----30.05-- 81.1----
2024-03-02 09:42 pmNNE 8.9 14.0----30.06-- 81.1----
2024-03-02 09:36 pmNNE 7.0 15.0----30.06-- 81.1----
2024-03-02 09:30 pmNNE 9.9 15.9----30.05-- 81.1----
2024-03-02 09:24 pmNNE 8.9 15.0----30.05-- 81.1----
2024-03-02 09:18 pmNNE 9.9 15.0----30.05-- 81.1----
2024-03-02 09:12 pm NE 6.0 14.0----30.05-- 81.1----
2024-03-02 09:06 pm NE 8.0 13.0----30.05-- 81.1----
2024-03-02 09:00 pmNNE 8.0 15.9----30.05+0.03- 81.1----
2024-03-02 08:54 pmNNE 9.9 15.0----30.05-- 81.1----
2024-03-02 08:48 pmNNE 12.0 15.9----30.05-- 81.3----
2024-03-02 08:42 pmNNE 9.9 15.0----30.05-- 81.3----
2024-03-02 08:36 pmNNE 8.0 12.0----30.04-- 81.3----
2024-03-02 08:30 pm NE 6.0 13.0----30.04-- 81.3----
2024-03-02 08:24 pmNNE 8.0 13.0----30.04-- 81.3----
2024-03-02 08:18 pmNNE 11.1 15.9----30.04-- 81.3----
2024-03-02 08:12 pmNNE 9.9 17.1----30.04-- 81.3----
2024-03-02 08:06 pmNNE 8.9 15.0----30.04-- 81.5----
2024-03-02 08:00 pmNNE 8.9 15.0----30.04+0.03- 81.5----
2024-03-02 07:54 pmNNE 12.0 18.1----30.04-- 81.5----
2024-03-02 07:48 pm NE 8.0 14.0----30.04-- 81.5----
2024-03-02 07:42 pm NE 8.9 15.0----30.04-- 81.5----
2024-03-02 07:36 pmNNE 6.0 14.0----30.03-- 81.5----
2024-03-02 07:30 pmNNE 8.0 15.9----30.03-- 81.5----
2024-03-02 07:24 pmNNE 9.9 15.0----30.03-- 81.5----
2024-03-02 07:18 pm NE 8.0 13.0----30.03-- 81.5----
2024-03-02 07:12 pmNNE 8.9 14.0----30.03-- 81.5----
2024-03-02 07:06 pm NE 8.0 14.0----30.03-- 81.5----
2024-03-02 07:00 pmNNE 7.0 14.0----30.03+0.01- 81.5----
2024-03-02 06:54 pmNNE 12.0 15.0----30.02-- 81.7----
2024-03-02 06:48 pm NE 8.9 15.9----30.02-- 81.7----
2024-03-02 06:42 pmNNE 9.9 15.9----30.02-- 81.7----
2024-03-02 06:36 pmNNE 9.9 13.0----30.02-- 81.7----
2024-03-02 06:30 pmNNE 9.9 15.9----30.02-- 81.7----
2024-03-02 06:24 pmNNE 8.0 14.0----30.02-- 81.7----
2024-03-02 06:18 pmNNE 9.9 15.9----30.02-- 81.7----
2024-03-02 06:12 pmNNE 12.0 15.0----30.01-- 81.7----
2024-03-02 06:06 pmNNE 8.9 15.0----30.02-- 81.7----
2024-03-02 06:00 pmNNE 8.9 15.9----30.02+0.00- 81.7----
2024-03-02 05:54 pmNNE 9.9 15.0----30.02-- 81.7----
2024-03-02 05:48 pmNNE 9.9 14.0----30.02-- 81.7----
2024-03-02 05:42 pm NE 8.9 15.0----30.02-- 81.7----
2024-03-02 05:36 pmNNE 11.1 18.1----30.02-- 81.7----
2024-03-02 05:30 pmNNE 9.9 15.0----30.02-------
2024-03-02 05:24 pmNNE 7.0 13.0----30.01-------
2024-03-02 05:18 pmNNE 8.9 14.0----30.01-- 81.7----
2024-03-02 05:12 pmNNE 9.9 18.1----30.01-- 81.7----
2024-03-02 05:06 pmNNE 11.1 15.0----30.01-- 81.7----
2024-03-02 05:00 pmNNE 11.1 15.9----30.01-0.03- 81.7----
2024-03-02 04:54 pmNNE 11.1 15.9----30.01-- 81.7----
2024-03-02 04:48 pmNNE 11.1 17.1----30.01-- 81.7----
2024-03-02 04:42 pmNNE 8.0 15.9----30.01-- 81.7----
2024-03-02 04:36 pmNNE 9.9 15.9----30.01-- 81.7----
2024-03-02 04:30 pmNNE 12.0 18.1----30.01-- 81.7----
2024-03-02 04:24 pmNNE 8.9 15.9----30.01-- 81.7----
2024-03-02 04:18 pmNNE 8.9 17.1----30.01-- 81.7----
2024-03-02 04:12 pmNNE 11.1 18.1----30.01-- 81.5----
2024-03-02 04:06 pmNNE 11.1 18.1----30.01-- 81.5----
2024-03-02 04:00 pmNNE 11.1 17.1----30.01-0.04- 81.5----
2024-03-02 03:54 pmNNE 12.0 19.0----30.01-- 81.5----